Santa Rosa, CA

7:31 AM PST on February 23, 2018 (GMT -0800)
Sonoma County

Weather History for KSTS - March, 2015

Change the Weather History Date:

Saturday, March 14, 2015

  Actual Average Record
Temperature  
Mean Temperature 66 °F 53 °F  
Max Temperature 82 °F 64 °F 82 °F (2015)
Min Temperature 50 °F 42 °F 35 °F (2002)
Degree Days  
Heating Degree Days 0    
Month to date heating degree days 123  
Since 1 July heating degree days 1579  
Cooling Degree Days 1    
Month to date cooling degree days 1  
Year to date cooling degree days 1  
Growing Degree Days 15 (Base 50)    
Moisture  
Dew Point 54 °F    
Average Humidity 68    
Maximum Humidity 100    
Minimum Humidity 36    
Precipitation  
Precipitation 0.00 in 0.13 in 1.03 in (2003)
Month to date precipitation 0.02 2.78  
Year to date precipitation 4.34 16.23  
Sea Level Pressure  
Sea Level Pressure 30.02 in    
Wind  
Wind Speed 2 mph (SSW)    
Max Wind Speed 10 mph    
Max Gust Speed 14 mph    
Visibility 10 miles    
Events      
T = Trace of Precipitation, MM = Missing Value Source: NWS Daily Summary

Daily Weather History Graph

Daily Weather History Graph

Search for Another Location

Airport or City:

Trip Planner

Search our weather history database for the weather conditions in past years. The results will help you decide how hot, cold, wet, or windy it might be!

Date:

Astronomy

Mar. 14, 2015 Rise Set
Actual Time 7:24 AM PDT 7:17 PM PDT
Civil Twilight 6:57 AM PDT 7:43 PM PDT
Nautical Twilight 6:27 AM PDT 8:14 PM PDT
Astronomical Twilight 5:56 AM PDT 8:45 PM PDT
Moon 2:53 AM PDT (3/14) 1:14 PM PDT (3/14)
Length of Visible Light 12h 45m
Length of Day
11h 53m
Last Quarter, 39% of the Moon is Illuminated
Mar 14
Last Quarter
Mar 20
New
Mar 27
First Quarter
Apr 4
Full
Apr 11
Last Quarter

Hourly Weather History & Observations

Time (PDT) Temp. Dew Point Humidity Pressure Visibility Wind Dir Wind Speed Gust Speed Precip Events Conditions
12:53 AM 57.0 °F 52.0 °F 83% 30.09 in 10.0 mi Calm Calm - N/A   Clear
1:53 AM 55.0 °F 52.0 °F 89% 30.08 in 10.0 mi Calm Calm - N/A   Clear
2:53 AM 54.0 °F 52.0 °F 93% 30.09 in 10.0 mi Calm Calm - N/A   Clear
3:53 AM 54.0 °F 52.0 °F 93% 30.07 in 10.0 mi Calm Calm - N/A   Clear
4:53 AM 53.1 °F 51.1 °F 93% 30.07 in 10.0 mi WNW 4.6 mph - N/A   Clear
5:53 AM 50.0 °F 48.9 °F 96% 30.08 in 10.0 mi West 3.5 mph - N/A   Clear
6:53 AM 52.0 °F 51.1 °F 97% 30.10 in 10.0 mi Calm Calm - N/A   Clear
7:53 AM 53.1 °F 51.1 °F 93% 30.09 in 10.0 mi Calm Calm - N/A   Mostly Cloudy
8:53 AM 55.0 °F 52.0 °F 89% 30.09 in 10.0 mi Calm Calm - N/A   Mostly Cloudy
9:53 AM 62.1 °F 53.1 °F 72% 30.09 in 10.0 mi Calm Calm - N/A   Mostly Cloudy
10:53 AM 66.9 °F 55.0 °F 66% 30.08 in 10.0 mi Calm Calm - N/A   Scattered Clouds
11:53 AM 71.1 °F 54.0 °F 55% 30.05 in 10.0 mi South 4.6 mph - N/A   Mostly Cloudy
12:53 PM 72.0 °F 53.1 °F 51% 30.05 in 10.0 mi SSW 3.5 mph - N/A   Mostly Cloudy
1:53 PM 75.9 °F 55.0 °F 48% 30.01 in 10.0 mi Calm Calm - N/A   Mostly Cloudy
2:53 PM 79.0 °F 55.9 °F 45% 29.98 in 10.0 mi Calm Calm - N/A   Scattered Clouds
3:53 PM 80.1 °F 52.0 °F 38% 29.96 in 10.0 mi South 9.2 mph - N/A   Mostly Cloudy
4:53 PM 79.0 °F 53.1 °F 40% 29.95 in 10.0 mi South 6.9 mph - N/A   Mostly Cloudy
5:53 PM 78.1 °F 57.0 °F 48% 29.94 in 10.0 mi SSW 3.5 mph - N/A   Mostly Cloudy
6:53 PM 75.0 °F 57.9 °F 55% 29.94 in 10.0 mi SW 3.5 mph - N/A   Mostly Cloudy
7:53 PM 72.0 °F 57.9 °F 61% 29.94 in 10.0 mi Calm Calm - 0.00 in   Clear
8:53 PM 68.0 °F 57.0 °F 68% 29.95 in 10.0 mi Calm Calm - N/A   Clear
9:53 PM 64.9 °F 55.0 °F 70% 29.95 in 10.0 mi ESE 3.5 mph - N/A   Clear
10:53 PM 62.1 °F 55.0 °F 78% 29.98 in 10.0 mi Calm Calm - N/A   Clear
11:53 PM 60.1 °F 53.1 °F 78% 29.96 in 10.0 mi Calm Calm - N/A   Clear